Location: Praha
(50.0830°N, 14.4670°E)
Time: 06:42:31
(UTC+02:00)

ISS - Pass Details

Date: 02 July 2022
Orbit: 414 x 420 km, 51.6° (Epoch: 02 July)

Event Time Altitude Azimuth Distance (km) Brightness Sun altitude
Exits shadow 04:08:29 - 245° (WSW) 1,739 -1.2 -6.5°
Reaches altitude 10° 04:09:05 10° 245° (WSW) 1,494 -1.5 -6.4°
Maximum altitude 04:12:26 74° 160° (SSE) 439 -3.7 -6.1°
Drops below altitude 10° 04:15:48 10° 75° (ENE) 1,503 0.1 -5.7°
Sets 04:17:54 0° 74° (ENE) 2,370 1.2 -5.5°
